Gwinner, ND

3:33 AM CST on January 22, 2017 (GMT -0600)
Gwinner-melroe

Weather History for KGWR - October, 2012

Change the Weather History Date:

Tuesday, October 23, 2012

  Actual Average (KP67) Record (KP67)
Temperature  
Mean Temperature 52 °F -  
Max Temperature 57 °F 49 °F 52 °F (1996)
Min Temperature 48 °F 29 °F 21 °F (1996)
Degree Days  
Heating Degree Days 12    
Growing Degree Days 2 (Base 50)    
Moisture  
Dew Point 51 °F    
Average Humidity 98    
Maximum Humidity 100    
Minimum Humidity 87    
Precipitation  
Precipitation 0.00 in - - ()
Sea Level Pressure  
Sea Level Pressure 29.73 in    
Wind  
Wind Speed 9 mph (SSE)    
Max Wind Speed 17 mph    
Max Gust Speed 24 mph    
Visibility 5 miles    
Events      
Averages and records for this station are not official NWS values.
T = Trace of Precipitation, MM = Missing Value Source: NWS Daily Summary

Daily Weather History Graph

Daily Weather History Graph

Search for Another Location

Airport or City:

Trip Planner

Search our weather history database for the weather conditions in past years. The results will help you decide how hot, cold, wet, or windy it might be!

Date:

Astronomy

Oct. 23, 2012 Rise Set
Actual Time 7:59 AM CDT 6:29 PM CDT
Civil Twilight 7:28 AM CDT 7:00 PM CDT
Nautical Twilight 6:53 AM CDT 7:35 PM CDT
Astronomical Twilight 6:18 AM CDT 8:09 PM CDT
Moon 3:31 PM CDT (10/23) 1:33 AM CDT (10/23)
Length of Visible Light 11h 31m
Length of Day
10h 29m
Waxing Gibbous, 67% of the Moon is Illuminated
Oct 23
Waxing Gibbous
Oct 29
Full
Nov 6
Last Quarter
Nov 13
New
Nov 20
First Quarter

Hourly Weather History & Observations

Time (CDT) Temp. Dew Point Humidity Pressure Visibility Wind Dir Wind Speed Gust Speed Precip Events Conditions
12:15 AM 48.2 °F 46.4 °F 93% 29.84 in 10.0 mi ENE 8.1 mph - 0.00 in   Overcast
12:35 AM 48.2 °F 46.4 °F 93% 29.84 in 10.0 mi East 6.9 mph - 0.00 in   Overcast
12:55 AM 48.2 °F 46.4 °F 93% 29.82 in 10.0 mi East 9.2 mph - 0.00 in   Overcast
1:15 AM 50.0 °F 46.4 °F 87% 29.81 in 10.0 mi East 9.2 mph - 0.00 in   Overcast
1:35 AM 50.0 °F 48.2 °F 94% 29.80 in 10.0 mi ESE 11.5 mph - 0.00 in   Overcast
1:55 AM 51.8 °F 48.2 °F 88% 29.79 in 10.0 mi ESE 11.5 mph - 0.00 in   Overcast
2:35 AM 51.8 °F 48.2 °F 88% 29.78 in 10.0 mi ESE 13.8 mph - 0.00 in   Overcast
2:55 AM 51.8 °F 48.2 °F 88% 29.78 in 10.0 mi ESE 10.4 mph - 0.00 in   Overcast
3:15 AM 51.8 °F 48.2 °F 88% 29.78 in 10.0 mi ESE 8.1 mph - 0.00 in   Overcast
3:35 AM 51.8 °F 48.2 °F 88% 29.78 in 10.0 mi ESE 6.9 mph - 0.00 in   Overcast
3:55 AM 51.8 °F 48.2 °F 88% 29.75 in 10.0 mi ESE 9.2 mph - 0.00 in   Overcast
4:15 AM 51.8 °F 48.2 °F 88% 29.75 in 10.0 mi ESE 9.2 mph - 0.00 in   Overcast
4:55 AM 50.0 °F 50.0 °F 100% 29.75 in 5.0 mi ESE 9.2 mph - 0.00 in   Overcast
5:15 AM 50.0 °F 50.0 °F 100% 29.74 in 8.0 mi ESE 9.2 mph - 0.00 in   Overcast
5:35 AM 50.0 °F 50.0 °F 100% 29.74 in 9.0 mi ESE 11.5 mph - 0.00 in   Overcast
5:55 AM 50.0 °F 50.0 °F 100% 29.73 in 7.0 mi ESE 10.4 mph - 0.00 in   Overcast
6:15 AM 50.0 °F 50.0 °F 100% 29.73 in 5.0 mi ESE 10.4 mph - 0.00 in   Overcast
6:35 AM 50.0 °F 50.0 °F 100% 29.73 in 4.0 mi ESE 10.4 mph - 0.00 in   Overcast
6:55 AM 50.0 °F 50.0 °F 100% 29.73 in 3.0 mi ESE 9.2 mph - 0.00 in   Overcast
7:15 AM 50.0 °F 50.0 °F 100% 29.73 in 2.5 mi ESE 9.2 mph - 0.00 in   Overcast
7:35 AM 48.2 °F 48.2 °F 100% 29.72 in 2.5 mi ESE 9.2 mph - 0.00 in   Overcast
8:15 AM 48.2 °F 48.2 °F 100% 29.72 in 1.0 mi ESE 8.1 mph - 0.00 in   Overcast
8:35 AM 48.2 °F 48.2 °F 100% 29.73 in 0.8 mi ESE 4.6 mph - 0.00 in   Overcast
9:15 AM 48.2 °F 48.2 °F 100% 29.71 in 0.2 mi East 9.2 mph - 0.00 in   Overcast
9:55 AM 50.0 °F 50.0 °F 100% 29.69 in 0.2 mi ESE 10.4 mph - 0.00 in   Overcast
10:15 AM 50.0 °F 50.0 °F 100% 29.70 in 0.2 mi ESE 10.4 mph - 0.00 in   Overcast
10:35 AM 50.0 °F 50.0 °F 100% 29.69 in 0.5 mi ESE 11.5 mph - 0.00 in   Overcast
10:55 AM 50.0 °F 50.0 °F 100% 29.69 in 0.2 mi ESE 11.5 mph - 0.00 in   Overcast
11:15 AM 50.0 °F 50.0 °F 100% 29.69 in 0.2 mi ESE 10.4 mph - 0.00 in   Overcast
11:35 AM 51.8 °F 51.8 °F 100% 29.69 in 0.2 mi SE 12.7 mph - 0.00 in   Overcast
11:55 AM 51.8 °F 51.8 °F 100% 29.69 in 0.2 mi SE 12.7 mph - 0.00 in   Overcast
12:15 PM 51.8 °F 51.8 °F 100% 29.69 in 0.8 mi SE 10.4 mph - 0.00 in   Overcast
12:35 PM 51.8 °F 51.8 °F 100% 29.70 in 1.5 mi SSE 8.1 mph - 0.00 in   Overcast
12:55 PM 51.8 °F 51.8 °F 100% 29.69 in 1.2 mi SSE 6.9 mph - 0.00 in   Overcast
1:35 PM 53.6 °F 53.6 °F 100% 29.67 in 2.0 mi SSE 6.9 mph - 0.00 in   Overcast
1:55 PM 53.6 °F 53.6 °F 100% 29.66 in 2.0 mi SSE 5.8 mph - 0.00 in   Overcast
2:15 PM 53.6 °F 53.6 °F 100% 29.65 in 1.8 mi SE 6.9 mph - 0.00 in   Overcast
2:35 PM 55.4 °F 55.4 °F 100% 29.63 in 3.0 mi SE 6.9 mph - 0.00 in   Overcast
2:55 PM 55.4 °F 55.4 °F 100% 29.64 in 3.0 mi SSE 4.6 mph - 0.00 in   Overcast
3:15 PM 55.4 °F 55.4 °F 100% 29.65 in 3.0 mi SSW 9.2 mph - 0.00 in   Overcast
3:35 PM 57.2 °F 57.2 °F 100% 29.65 in 3.0 mi SW 8.1 mph - 0.00 in   Overcast
3:55 PM 57.2 °F 57.2 °F 100% 29.64 in 4.0 mi South 6.9 mph - 0.00 in   Overcast
4:15 PM 57.2 °F 57.2 °F 100% 29.63 in 4.0 mi South 5.8 mph - 0.00 in   Overcast
4:35 PM 57.2 °F 57.2 °F 100% 29.62 in 5.0 mi SSW 6.9 mph - 0.00 in   Overcast
4:55 PM 57.2 °F 57.2 °F 100% 29.64 in 4.0 mi SW 8.1 mph - 0.00 in   Overcast
5:15 PM 57.2 °F 57.2 °F 100% 29.65 in 3.0 mi WSW 8.1 mph - 0.00 in   Overcast
5:35 PM 57.2 °F 57.2 °F 100% 29.66 in 3.0 mi WSW 8.1 mph - 0.00 in   Overcast
5:55 PM 57.2 °F 57.2 °F 100% 29.67 in 3.0 mi WSW 8.1 mph - 0.00 in   Overcast
6:15 PM 57.2 °F 57.2 °F 100% 29.68 in 2.5 mi SW 9.2 mph - 0.00 in   Overcast
6:35 PM 55.4 °F 55.4 °F 100% 29.69 in 2.5 mi SW 8.1 mph - 0.00 in   Overcast
6:55 PM 55.4 °F 55.4 °F 100% 29.70 in 2.5 mi WSW 10.4 mph - 0.00 in   Overcast
7:15 PM 55.4 °F 55.4 °F 100% 29.72 in 1.2 mi West 13.8 mph - 0.00 in   Overcast
7:35 PM 55.4 °F 55.4 °F 100% 29.72 in 1.5 mi WNW 12.7 mph 24.2 mph 0.00 in   Overcast
7:55 PM 53.6 °F 53.6 °F 100% 29.73 in 8.0 mi WNW 9.2 mph - 0.00 in   Mostly Cloudy
8:15 PM 53.6 °F 53.6 °F 100% 29.74 in 7.0 mi West 10.4 mph - 0.00 in   Overcast
8:55 PM 53.6 °F 53.6 °F 100% 29.75 in 8.0 mi WNW 6.9 mph - 0.00 in   Overcast
9:35 PM 51.8 °F 51.8 °F 100% 29.76 in 10.0 mi West 9.2 mph - 0.00 in   Partly Cloudy
9:55 PM 50.0 °F 50.0 °F 100% 29.78 in 10.0 mi WNW 17.3 mph 23.0 mph 0.00 in   Partly Cloudy
10:15 PM 48.2 °F 48.2 °F 100% 29.79 in 10.0 mi WNW 13.8 mph - 0.00 in   Partly Cloudy
10:35 PM 48.2 °F 48.2 °F 100% 29.79 in 10.0 mi NW 12.7 mph - 0.00 in   Clear
10:55 PM 48.2 °F 46.4 °F 93% 29.80 in 10.0 mi WNW 12.7 mph - 0.00 in   Clear
11:15 PM 48.2 °F 48.2 °F 100% 29.82 in 10.0 mi WNW 12.7 mph - 0.00 in   Mostly Cloudy
11:35 PM 48.2 °F 48.2 °F 100% 29.82 in 10.0 mi WNW 12.7 mph - 0.00 in   Overcast
11:55 PM 48.2 °F 48.2 °F 100% 29.85 in 10.0 mi WNW 13.8 mph 18.4 mph 0.00 in   Overcast